| time (UTC) | temp C | wind direction | speed KPH | gust KPH | rain 1hr cm | rain 24hr cm | rain mn cm | humidity % | barometer mb |
| 20260506195355 | 12 | 116 | 3.2 | 4.8 | 0.18 | 0.53 | 0.53 | 98 | 1005.0 |
| 20260506194852 | 12 | 116 | 3.2 | 4.8 | 0.00 | 0.51 | 0.51 | 98 | 1005.0 |
| 20260506194349 | 13 | 117 | 3.2 | 4.8 | 0.13 | 0.51 | 0.51 | 98 | 1005.2 |
| 20260506193846 | 13 | 116 | 1.6 | 3.2 | 0.13 | 0.51 | 0.51 | 98 | 1005.2 |
| 20260506193343 | 13 | 116 | 1.6 | 3.2 | 0.00 | 0.48 | 0.48 | 98 | 1005.5 |
| 20260506192839 | 13 | 116 | 1.6 | 3.2 | 0.00 | 0.48 | 0.48 | 98 | 1005.3 |
| 20260506192336 | 13 | 116 | 3.2 | 3.2 | 0.18 | 0.48 | 0.48 | 98 | 1005.1 |
| 20260506191833 | 13 | 116 | 3.2 | 4.8 | 0.18 | 0.48 | 0.48 | 98 | 1005.1 |
| 20260506191329 | 13 | 116 | 1.6 | 3.2 | 0.13 | 0.46 | 0.46 | 98 | 1005.3 |
| 20260506190826 | 14 | 116 | 1.6 | 3.2 | 0.18 | 0.43 | 0.43 | 98 | 1005.3 |
| 20260506190322 | 14 | 116 | 1.6 | 3.2 | 0.30 | 0.43 | 0.43 | 98 | 1005.2 |
| 20260506185820 | 14 | 116 | 3.2 | 4.8 | 0.30 | 0.41 | 0.41 | 98 | 1005.4 |
| 20260506185317 | 14 | 116 | 3.2 | 3.2 | 0.18 | 0.38 | 0.38 | 98 | 1005.3 |
| 20260506184814 | 14 | 116 | 1.6 | 3.2 | 0.13 | 0.36 | 0.36 | 98 | 1005.5 |
| 20260506184311 | 14 | 117 | 0.0 | 3.2 | 0.30 | 0.36 | 0.36 | 98 | 1005.5 |
| 20260506183808 | 13 | 117 | 0.0 | 0.0 | 0.30 | 0.33 | 0.33 | 98 | 1005.7 |
| 20260506183303 | 13 | 117 | 0.0 | 3.2 | 0.30 | 0.30 | 0.30 | 98 | 1005.5 |
| 20260506182801 | 13 | 117 | 0.0 | 3.2 | 0.66 | 0.28 | 0.28 | 98 | 1005.5 |
| 20260506182257 | 13 | 229 | 1.6 | 8.0 | 0.61 | 0.23 | 0.23 | 97 | 1006.0 |
| 20260506181755 | 13 | 288 | 9.7 | 11.3 | 0.30 | 0.15 | 0.15 | 96 | 1006.1 |
| 20260506181253 | 13 | 113 | 1.6 | 3.2 | 0.13 | 0.13 | 0.13 | 96 | 1005.5 |
| 20260506180750 | 13 | 113 | 3.2 | 3.2 | 0.18 | 0.10 | 0.10 | 95 | 1005.4 |
| 20260506180245 | 13 | 207 | 3.2 | 4.8 | 0.30 | 0.10 | 0.10 | 95 | 1005.6 |
| 20260506175742 | 14 | 124 | 3.2 | 3.2 | 0.30 | 0.08 | 0.08 | 94 | 1005.2 |
| 20260506175239 | 15 | 108 | 0.0 | 0.0 | 0.30 | 0.05 | 0.05 | 93 | 1005.3 |
| 20260506174737 | 15 | 108 | 0.0 | 3.2 | 0.13 | 0.03 | 0.03 | 90 | 1005.4 |
| 20260506174233 | 15 | 108 | 0.0 | 4.8 | 0.00 | 0.00 | 0.00 | 89 | 1005.3 |
| 20260506173732 | 16 | 109 | 3.2 | 3.2 | 0.00 | 0.00 | 0.00 | 84 | 1005.4 |
| 20260506173228 | 16 | 99 | 3.2 | 4.8 | 0.00 | 0.00 | 0.00 | 83 | 1005.4 |
| 20260506172725 | 16 | 99 | 3.2 | 4.8 | 0.00 | 0.00 | 0.00 | 81 | 1005.5 |
| 20260506172221 | 16 | 145 | 3.2 | 3.2 | 0.00 | 0.00 | 0.00 | 84 | 1005.5 |
| 20260506171719 | 16 | 89 | 0.0 | 3.2 | 0.00 | 0.00 | 0.00 | 83 | 1005.6 |
| 20260506171216 | 16 | 115 | 0.0 | 3.2 | 0.00 | 0.00 | 0.00 | 84 | 1005.6 |
| 20260506170714 | 16 | 117 | 0.0 | 3.2 | 0.00 | 0.00 | 0.00 | 83 | 1005.8 |
| 20260506170210 | 16 | 116 | 3.2 | 4.8 | 0.00 | 0.00 | 0.00 | 83 | 1006.0 |
| 20260506165709 | 16 | 117 | 4.8 | 4.8 | 0.00 | 0.00 | 0.00 | 83 | 1006.0 |
| 20260506165205 | 16 | 119 | 1.6 | 4.8 | 0.00 | 0.00 | 0.00 | 85 | 1006.2 |
| 20260506164702 | 15 | 120 | 3.2 | 4.8 | 0.00 | 0.00 | 0.00 | 85 | 1006.2 |
| 20260506164159 | 15 | 121 | 1.6 | 3.2 | 0.00 | 0.00 | 0.00 | 85 | 1006.5 |
| 20260506163655 | 15 | 121 | 1.6 | 3.2 | 0.00 | 0.00 | 0.00 | 83 | 1006.7 |
| 20260506163151 | 16 | 96 | 0.0 | 3.2 | 0.00 | 0.00 | 0.00 | 82 | 1006.7 |
| 20260506162647 | 16 | 96 | 3.2 | 3.2 | 0.00 | 0.00 | 0.00 | 81 | 1007.0 |
| 20260506162145 | 16 | 154 | 1.6 | 3.2 | 0.00 | 0.00 | 0.00 | 80 | 1007.0 |
| 20260506161642 | 16 | 154 | 3.2 | 4.8 | 0.00 | 0.00 | 0.00 | 80 | 1007.1 |
| 20260506161139 | 16 | 104 | 3.2 | 3.2 | 0.00 | 0.00 | 0.00 | 81 | 1007.0 |
| 20260506160636 | 16 | 141 | 0.0 | 3.2 | 0.00 | 0.00 | 0.00 | 81 | 1007.2 |
| 20260506160133 | 16 | 131 | 0.0 | 3.2 | 0.00 | 0.00 | 0.00 | 80 | 1007.3 |
| 20260506155632 | 16 | 115 | 1.6 | 3.2 | 0.00 | 0.00 | 0.00 | 80 | 1007.3 |
| 20260506155128 | 16 | 101 | 3.2 | 3.2 | 0.00 | 0.00 | 0.00 | 79 | 1007.6 |
| 20260506153225 | 16 | 102 | 3.2 | 3.2 | 0.00 | 0.00 | 0.00 | 79 | 1007.6 |
| 20260506152721 | 17 | 197 | 3.2 | 4.8 | 0.00 | 0.00 | 0.00 | 78 | 1007.5 |
| 20260506152219 | 16 | 197 | 0.0 | 3.2 | 0.00 | 0.00 | 0.00 | 79 | 1007.7 |
| 20260506151718 | 16 | 197 | 3.2 | 3.2 | 0.00 | 0.00 | 0.00 | 79 | 1007.5 |
| 20260506151214 | 16 | 197 | 1.6 | 3.2 | 0.00 | 0.00 | 0.00 | 79 | 1007.7 |
| 20260506150710 | 16 | 197 | 1.6 | 3.2 | 0.00 | 0.00 | 0.00 | 79 | 1007.5 |
| 20260506150207 | 16 | 197 | 3.2 | 3.2 | 0.00 | 0.00 | 0.00 | 79 | 1007.6 |
| 20260506145704 | 16 | 197 | 3.2 | 3.2 | 0.00 | 0.00 | 0.00 | 78 | 1007.5 |
| 20260506145201 | 16 | 198 | 0.0 | 4.8 | 0.00 | 0.00 | 0.00 | 78 | 1007.5 |
| 20260506144659 | 16 | 198 | 0.0 | 0.0 | 0.00 | 0.00 | 0.00 | 79 | 1007.5 |
| 20260506144155 | 16 | 198 | 3.2 | 3.2 | 0.00 | 0.00 | 0.00 | 79 | 1007.3 |
| 20260506143653 | 16 | 198 | 0.0 | 0.0 | 0.00 | 0.00 | 0.00 | 81 | 1007.6 |
| 20260506143151 | 16 | 198 | 0.0 | 3.2 | 0.00 | 0.00 | 0.00 | 81 | 1007.3 |
| 20260506142649 | 15 | 198 | 0.0 | 3.2 | 0.00 | 0.00 | 0.00 | 81 | 1007.2 |
| 20260506142146 | 15 | 198 | 0.0 | 3.2 | 0.00 | 0.00 | 0.00 | 81 | 1007.3 |
| 20260506141644 | 15 | 197 | 3.2 | 4.8 | 0.00 | 0.00 | 0.00 | 82 | 1007.5 |
| 20260506141142 | 15 | 198 | 1.6 | 3.2 | 0.00 | 0.00 | 0.00 | 82 | 1007.5 |
| 20260506140639 | 15 | 198 | 0.0 | 3.2 | 0.00 | 0.00 | 0.00 | 81 | 1007.5 |
| 20260506140136 | 15 | 198 | 0.0 | 3.2 | 0.00 | 0.00 | 0.00 | 81 | 1007.7 |
| 20260506135633 | 15 | 198 | 0.0 | 3.2 | 0.00 | 0.00 | 0.00 | 81 | 1007.8 |
| 20260506135129 | 15 | 198 | 0.0 | 3.2 | 0.00 | 0.00 | 0.00 | 82 | 1007.7 |
| 20260506134626 | 15 | 198 | 0.0 | 3.2 | 0.00 | 0.00 | 0.00 | 83 | 1007.8 |
| 20260506134122 | 14 | 198 | 0.0 | 3.2 | 0.00 | 0.00 | 0.00 | 83 | 1007.9 |
| 20260506133620 | 13 | 198 | 0.0 | 3.2 | 0.00 | 0.00 | 0.00 | 84 | 1007.8 |
| 20260506133116 | 13 | 198 | 3.2 | 3.2 | 0.00 | 0.00 | 0.00 | 84 | 1007.9 |
| 20260506132614 | 13 | 198 | 0.0 | 3.2 | 0.00 | 0.00 | 0.00 | 84 | 1007.9 |
| 20260506132111 | 13 | 198 | 1.6 | 3.2 | 0.00 | 0.00 | 0.00 | 85 | 1008.3 |
| 20260506131608 | 13 | 198 | 3.2 | 3.2 | 0.00 | 0.00 | 0.00 | 85 | 1008.0 |
| 20260506131104 | 13 | 198 | 1.6 | 3.2 | 0.00 | 0.00 | 0.00 | 84 | 1008.0 |
| 20260506130601 | 13 | 198 | 0.0 | 3.2 | 0.00 | 0.00 | 0.00 | 83 | 1007.7 |
| 20260506130059 | 13 | 198 | 0.0 | 3.2 | 0.00 | 0.00 | 0.00 | 83 | 1007.8 |
| 20260506125557 | 13 | 198 | 3.2 | 3.2 | 0.00 | 0.00 | 0.00 | 83 | 1007.8 |
| 20260506125054 | 13 | 198 | 0.0 | 3.2 | 0.00 | 0.00 | 0.00 | 83 | 1007.9 |
| 20260506124552 | 13 | 198 | 0.0 | 3.2 | 0.00 | 0.00 | 0.00 | 83 | 1007.9 |
| 20260506124049 | 14 | 198 | 3.2 | 4.8 | 0.00 | 0.00 | 0.00 | 82 | 1007.9 |
| 20260506123547 | 13 | 198 | 3.2 | 3.2 | 0.00 | 0.00 | 0.00 | 82 | 1007.8 |
| 20260506123045 | 13 | 198 | 3.2 | 3.2 | 0.00 | 0.00 | 0.00 | 82 | 1007.9 |
| 20260506122541 | 13 | 198 | 0.0 | 3.2 | 0.00 | 0.00 | 0.00 | 83 | 1008.0 |
| 20260506122040 | 13 | 198 | 3.2 | 3.2 | 0.00 | 0.00 | 0.00 | 84 | 1008.1 |
| 20260506121537 | 13 | 198 | 1.6 | 3.2 | 0.00 | 0.00 | 0.00 | 83 | 1008.0 |
| 20260506121033 | 13 | 198 | 1.6 | 3.2 | 0.00 | 0.00 | 0.00 | 83 | 1007.9 |
| 20260506120531 | 13 | 198 | 0.0 | 0.0 | 0.00 | 0.00 | 0.00 | 84 | 1008.1 |
| 20260506120028 | 12 | 198 | 0.0 | 0.0 | 0.00 | 0.00 | 0.00 | 85 | 1008.2 |
| 20260506115526 | 12 | 199 | 0.0 | 3.2 | 0.00 | 0.00 | 0.00 | 86 | 1008.2 |
| 20260506115024 | 12 | 199 | 0.0 | 3.2 | 0.00 | 0.00 | 0.00 | 86 | 1008.3 |
| 20260506114521 | 12 | 199 | 0.0 | 3.2 | 0.00 | 0.00 | 0.00 | 86 | 1008.3 |
| 20260506114020 | 12 | 198 | 1.6 | 3.2 | 0.00 | 0.00 | 0.00 | 85 | 1008.3 |
| 20260506113517 | 12 | 198 | 0.0 | 3.2 | 0.00 | 0.00 | 0.00 | 86 | 1008.4 |
| 20260506113015 | 12 | 198 | 0.0 | 3.2 | 0.00 | 0.00 | 0.00 | 86 | 1008.6 |
| 20260506112511 | 12 | 198 | 1.6 | 3.2 | 0.00 | 0.00 | 0.00 | 86 | 1008.5 |
| 20260506112008 | 12 | 198 | 0.0 | 3.2 | 0.00 | 0.00 | 0.00 | 86 | 1008.4 |
| 20260506111507 | 12 | 198 | 0.0 | 3.2 | 0.00 | 0.00 | 0.00 | 86 | 1008.7 |
| 20260506111003 | 12 | 198 | 1.6 | 3.2 | 0.00 | 0.00 | 0.00 | 85 | 1008.4 |
| 20260506110501 | 12 | 198 | 1.6 | 3.2 | 0.00 | 0.00 | 0.00 | 85 | 1008.5 |
| 20260506105957 | 12 | 198 | 3.2 | 3.2 | 0.00 | 0.00 | 0.00 | 86 | 1008.7 |
| 20260506105454 | 12 | 199 | 0.0 | 0.0 | 0.00 | 0.00 | 0.00 | 87 | 1008.7 |
| 20260506104951 | 12 | 199 | 0.0 | 3.2 | 0.00 | 0.00 | 0.00 | 86 | 1008.5 |
| 20260506104449 | 12 | 199 | 0.0 | 3.2 | 0.00 | 0.00 | 0.00 | 88 | 1008.6 |
| 20260506103947 | 11 | 199 | 0.0 | 3.2 | 0.00 | 0.00 | 0.00 | 89 | 1008.5 |
| 20260506103444 | 11 | 199 | 0.0 | 0.0 | 0.00 | 0.00 | 0.00 | 90 | 1008.3 |
| 20260506102940 | 11 | 199 | 0.0 | 0.0 | 0.00 | 0.00 | 0.00 | 92 | 1008.2 |
| 20260506102439 | 11 | 199 | 0.0 | 0.0 | 0.00 | 0.00 | 0.00 | 92 | 1008.4 |
| 20260506101936 | 11 | 199 | 0.0 | 3.2 | 0.00 | 0.00 | 0.00 | 92 | 1008.5 |
| 20260506101432 | 11 | 199 | 0.0 | 0.0 | 0.00 | 0.00 | 0.00 | 93 | 1008.0 |
| 20260506100930 | 11 | 199 | 0.0 | 3.2 | 0.00 | 0.00 | 0.00 | 92 | 1008.0 |
| 20260506100428 | 11 | 199 | 0.0 | 0.0 | 0.00 | 0.00 | 0.00 | 90 | 1008.1 |
| 20260506095925 | 11 | 199 | 0.0 | 0.0 | 0.00 | 0.00 | 0.00 | 90 | 1008.1 |
| 20260506095424 | 11 | 199 | 0.0 | 3.2 | 0.00 | 0.00 | 0.00 | 89 | 1008.2 |
| 20260506094919 | 11 | 199 | 0.0 | 0.0 | 0.00 | 0.00 | 0.00 | 89 | 1007.9 |
| 20260506094418 | 11 | 199 | 0.0 | 3.2 | 0.00 | 0.00 | 0.00 | 89 | 1008.1 |
| 20260506093916 | 11 | 199 | 0.0 | 0.0 | 0.00 | 0.00 | 0.00 | 88 | 1008.2 |
| 20260506093413 | 12 | 199 | 0.0 | 3.2 | 0.00 | 0.00 | 0.00 | 88 | 1008.4 |
| 20260506092911 | 12 | 199 | 0.0 | 0.0 | 0.00 | 0.00 | 0.00 | 86 | 1008.1 |
| 20260506092409 | 12 | 199 | 0.0 | 3.2 | 0.00 | 0.00 | 0.00 | 85 | 1008.2 |
| 20260506091905 | 12 | 199 | 1.6 | 3.2 | 0.00 | 0.00 | 0.00 | 86 | 1008.1 |
| 20260506091403 | 11 | 199 | 1.6 | 3.2 | 0.00 | 0.00 | 0.00 | 87 | 1008.0 |
| 20260506090900 | 12 | 199 | 0.0 | 0.0 | 0.00 | 0.00 | 0.00 | 87 | 1007.9 |
| 20260506090358 | 12 | 199 | 0.0 | 0.0 | 0.00 | 0.00 | 0.00 | 86 | 1007.8 |
| 20260506085854 | 12 | 199 | 0.0 | 3.2 | 0.00 | 0.00 | 0.00 | 86 | 1007.8 |
| 20260506085351 | 12 | 199 | 0.0 | 0.0 | 0.00 | 0.00 | 0.00 | 86 | 1007.7 |
| 20260506084847 | 12 | 199 | 0.0 | 0.0 | 0.00 | 0.00 | 0.00 | 86 | 1007.8 |
| 20260506084344 | 12 | 199 | 0.0 | 0.0 | 0.00 | 0.00 | 0.00 | 86 | 1007.9 |
| 20260506083840 | 12 | 199 | 0.0 | 3.2 | 0.00 | 0.00 | 0.00 | 89 | 1007.7 |
| 20260506083338 | 12 | 199 | 0.0 | 0.0 | 0.00 | 0.00 | 0.00 | 89 | 1007.9 |
| 20260506082835 | 12 | 199 | 0.0 | 0.0 | 0.00 | 0.00 | 0.00 | 89 | 1007.8 |
| 20260506082332 | 12 | 199 | 0.0 | 3.2 | 0.00 | 0.00 | 0.00 | 88 | 1007.8 |
| 20260506081828 | 13 | 199 | 0.0 | 0.0 | 0.00 | 0.00 | 0.00 | 85 | 1007.8 |
| 20260506081326 | 13 | 199 | 0.0 | 3.2 | 0.00 | 0.00 | 0.00 | 83 | 1007.7 |
| 20260506080823 | 13 | 199 | 0.0 | 3.2 | 0.00 | 0.00 | 0.00 | 83 | 1007.6 |
| 20260506080320 | 13 | 199 | 0.0 | 3.2 | 0.00 | 0.00 | 0.00 | 83 | 1007.7 |
| 20260506073304 | 13 | 199 | 1.6 | 3.2 | 0.00 | 0.00 | 0.00 | 85 | 1007.5 |
| 20260506072801 | 13 | 199 | 0.0 | 3.2 | 0.00 | 0.00 | 0.00 | 84 | 1007.7 |
| 20260506072258 | 13 | 199 | 0.0 | 3.2 | 0.00 | 0.00 | 0.00 | 84 | 1007.6 |
| 20260506071755 | 13 | 199 | 0.0 | 0.0 | 0.00 | 0.00 | 0.00 | 85 | 1007.6 |
| 20260506071253 | 13 | 199 | 0.0 | 3.2 | 0.00 | 0.00 | 0.00 | 85 | 1007.4 |
| 20260506070744 | 14 | 199 | 0.0 | 3.2 | 0.00 | 0.00 | 0.00 | 83 | 1007.5 |
| 20260506070243 | 13 | 199 | 0.0 | 3.2 | 0.00 | 0.00 | 0.00 | 83 | 1007.5 |
| 20260506062218 | 15 | 198 | 3.2 | 4.8 | 0.00 | 0.00 | 0.00 | 82 | 1006.9 |
| 20260506061714 | 15 | 197 | 1.6 | 3.2 | 0.00 | 0.00 | 0.00 | 82 | 1007.0 |
| 20260506061212 | 15 | 197 | 0.0 | 3.2 | 0.00 | 0.00 | 0.00 | 82 | 1007.1 |
| 20260506060710 | 15 | 197 | 0.0 | 4.8 | 0.00 | 0.00 | 0.00 | 82 | 1007.0 |
| 20260506060207 | 15 | 197 | 1.6 | 3.2 | 0.00 | 0.00 | 0.00 | 83 | 1007.1 |
| 20260506051139 | 15 | 198 | 1.6 | 4.8 | 0.00 | 0.00 | 0.00 | 82 | 1007.1 |
| 20260506050638 | 16 | 197 | 0.0 | 3.2 | 0.00 | 0.00 | 0.00 | 81 | 1007.2 |
| 20260506050134 | 16 | 197 | 0.0 | 3.2 | 0.00 | 0.00 | 0.00 | 78 | 1007.0 |
| 20260506045127 | 17 | 193 | 6.4 | 8.0 | 0.00 | 0.00 | 0.00 | 77 | 1007.3 |
| 20260506044625 | 16 | 203 | 4.8 | 8.0 | 0.00 | 0.00 | 0.00 | 78 | 1007.2 |
| 20260506044122 | 16 | 214 | 8.0 | 8.0 | 0.00 | 0.00 | 0.00 | 79 | 1007.5 |
| 20260506043619 | 15 | 198 | 0.0 | 3.2 | 0.00 | 0.00 | 0.00 | 82 | 1007.4 |
| 20260506043117 | 15 | 198 | 0.0 | 3.2 | 0.00 | 0.00 | 0.00 | 82 | 1007.4 |
| 20260506042616 | 15 | 198 | 0.0 | 4.8 | 0.00 | 0.00 | 0.00 | 83 | 1007.2 |
| 20260506042114 | 15 | 198 | 3.2 | 4.8 | 0.00 | 0.00 | 0.00 | 83 | 1007.4 |
| 20260506041612 | 15 | 198 | 1.6 | 3.2 | 0.00 | 0.00 | 0.00 | 82 | 1007.3 |
| 20260506041108 | 15 | 199 | 4.8 | 8.0 | 0.00 | 0.00 | 0.00 | 82 | 1007.3 |
| 20260506040607 | 15 | 188 | 4.8 | 8.0 | 0.00 | 0.00 | 0.00 | 82 | 1007.5 |
| 20260506035600 | 15 | 155 | 1.6 | 3.2 | 0.00 | 0.08 | 0.08 | 83 | 1007.3 |
| 20260506035056 | 15 | 176 | 4.8 | 4.8 | 0.00 | 0.08 | 0.08 | 84 | 1007.4 |
| 20260506034554 | 15 | 203 | 4.8 | 8.0 | 0.00 | 0.08 | 0.08 | 84 | 1007.4 |
| 20260506034050 | 15 | 174 | 1.6 | 3.2 | 0.00 | 0.08 | 0.08 | 85 | 1007.3 |
| 20260506033548 | 15 | 174 | 0.0 | 3.2 | 0.00 | 0.08 | 0.08 | 85 | 1007.1 |
| 20260506033044 | 14 | 174 | 0.0 | 3.2 | 0.00 | 0.08 | 0.08 | 85 | 1006.9 |
| 20260506032542 | 14 | 174 | 0.0 | 3.2 | 0.00 | 0.08 | 0.08 | 84 | 1007.1 |
| 20260506032038 | 15 | 174 | 0.0 | 3.2 | 0.00 | 0.08 | 0.08 | 85 | 1007.0 |
| 20260506031536 | 15 | 181 | 3.2 | 4.8 | 0.00 | 0.08 | 0.08 | 85 | 1006.8 |
| 20260506031033 | 15 | 170 | 0.0 | 3.2 | 0.00 | 0.08 | 0.08 | 86 | 1006.9 |
| 20260506030531 | 15 | 178 | 4.8 | 8.0 | 0.00 | 0.08 | 0.08 | 85 | 1006.9 |
| 20260506030028 | 15 | 112 | 3.2 | 4.8 | 0.00 | 0.08 | 0.08 | 85 | 1007.0 |
| 20260506025525 | 16 | 108 | 8.0 | 8.0 | 0.00 | 0.08 | 0.08 | 84 | 1007.0 |
| 20260506025021 | 16 | 207 | 4.8 | 4.8 | 0.00 | 0.08 | 0.08 | 79 | 1007.1 |
| 20260506024518 | 17 | 218 | 4.8 | 4.8 | 0.00 | 0.08 | 0.08 | 78 | 1007.0 |
| 20260506024014 | 16 | 226 | 6.4 | 8.0 | 0.00 | 0.08 | 0.08 | 79 | 1007.0 |
| 20260506023511 | 16 | 213 | 6.4 | 8.0 | 0.00 | 0.08 | 0.08 | 79 | 1006.9 |
| 20260506023009 | 16 | 201 | 3.2 | 4.8 | 0.00 | 0.08 | 0.08 | 80 | 1007.0 |
| 20260506022506 | 16 | 186 | 4.8 | 8.0 | 0.00 | 0.08 | 0.08 | 80 | 1007.0 |
| 20260506022003 | 16 | 198 | 4.8 | 4.8 | 0.00 | 0.08 | 0.08 | 81 | 1007.3 |
| 20260506021500 | 16 | 200 | 4.8 | 4.8 | 0.00 | 0.08 | 0.08 | 83 | 1007.4 |
| 20260506020957 | 16 | 224 | 4.8 | 8.0 | 0.00 | 0.08 | 0.08 | 82 | 1007.5 |
| 20260506020455 | 16 | 196 | 4.8 | 8.0 | 0.00 | 0.08 | 0.08 | 82 | 1007.6 |
| 20260506015952 | 16 | 187 | 3.2 | 8.0 | 0.00 | 0.08 | 0.08 | 83 | 1007.6 |
| 20260506015449 | 16 | 203 | 6.4 | 8.0 | 0.00 | 0.08 | 0.08 | 82 | 1007.5 |
| 20260506014946 | 16 | 201 | 8.0 | 8.0 | 0.00 | 0.08 | 0.08 | 83 | 1007.5 |
| 20260506014443 | 16 | 199 | 8.0 | 8.0 | 0.00 | 0.08 | 0.08 | 83 | 1007.5 |
| 20260506013939 | 16 | 185 | 4.8 | 8.0 | 0.00 | 0.08 | 0.08 | 84 | 1007.5 |
| 20260506013438 | 16 | 166 | 1.6 | 3.2 | 0.00 | 0.08 | 0.08 | 85 | 1007.4 |
| 20260506012933 | 16 | 166 | 0.0 | 3.2 | 0.00 | 0.08 | 0.08 | 85 | 1007.5 |
| 20260506012430 | 16 | 166 | 1.6 | 3.2 | 0.00 | 0.08 | 0.08 | 85 | 1007.4 |
| 20260506011927 | 15 | 160 | 3.2 | 3.2 | 0.00 | 0.08 | 0.08 | 85 | 1007.4 |
| 20260506011425 | 15 | 153 | 1.6 | 3.2 | 0.00 | 0.08 | 0.08 | 86 | 1007.4 |
| 20260506010921 | 15 | 148 | 1.6 | 3.2 | 0.00 | 0.08 | 0.08 | 87 | 1007.2 |
| 20260506010420 | 15 | 142 | 1.6 | 3.2 | 0.00 | 0.08 | 0.08 | 87 | 1007.2 |
| 20260506005916 | 15 | 109 | 0.0 | 3.2 | 0.00 | 0.08 | 0.08 | 87 | 1007.2 |
| 20260506005414 | 15 | 109 | 3.2 | 3.2 | 0.00 | 0.08 | 0.08 | 87 | 1006.9 |
| 20260506004909 | 15 | 110 | 3.2 | 4.8 | 0.00 | 0.08 | 0.08 | 89 | 1007.1 |
| 20260506004407 | 15 | 134 | 1.6 | 3.2 | 0.00 | 0.08 | 0.08 | 87 | 1007.0 |
| 20260506003903 | 15 | 118 | 1.6 | 3.2 | 0.00 | 0.08 | 0.08 | 87 | 1007.1 |
| 20260506003359 | 15 | 105 | 3.2 | 3.2 | 0.00 | 0.08 | 0.08 | 90 | 1007.0 |
| 20260506002856 | 15 | 91 | 3.2 | 3.2 | 0.00 | 0.08 | 0.08 | 94 | 1006.6 |
| 20260506002352 | 16 | 90 | 3.2 | 3.2 | 0.00 | 0.08 | 0.08 | 92 | 1006.4 |
| 20260506001848 | 15 | 248 | 4.8 | 4.8 | 0.00 | 0.08 | 0.08 | 90 | 1006.1 |
| 20260506001345 | 15 | 264 | 3.2 | 4.8 | 0.00 | 0.08 | 0.08 | 91 | 1006.0 |
| 20260506000842 | 16 | 315 | 4.8 | 4.8 | 0.00 | 0.08 | 0.08 | 89 | 1005.9 |
| 20260506000340 | 16 | 299 | 6.4 | 8.0 | 0.00 | 0.08 | 0.08 | 87 | 1005.8 |
| 20260505235836 | 16 | 306 | 4.8 | 4.8 | 0.00 | 0.08 | 0.08 | 91 | 1005.7 |
| 20260505235334 | 15 | 289 | 4.8 | 4.8 | 0.00 | 0.08 | 0.08 | 89 | 1005.8 |
| 20260505234830 | 15 | 331 | 3.2 | 4.8 | 0.00 | 0.08 | 0.08 | 91 | 1005.6 |
| 20260505234329 | 15 | 333 | 0.0 | 3.2 | 0.00 | 0.08 | 0.08 | 92 | 1005.5 |
| 20260505233825 | 15 | 332 | 0.0 | 0.0 | 0.00 | 0.08 | 0.08 | 91 | 1005.6 |
| 20260505233323 | 16 | 330 | 3.2 | 4.8 | 0.00 | 0.08 | 0.08 | 91 | 1005.7 |
| 20260505232820 | 16 | 299 | 0.0 | 0.0 | 0.00 | 0.08 | 0.08 | 89 | 1005.4 |
| 20260505232318 | 16 | 298 | 3.2 | 3.2 | 0.18 | 0.08 | 0.08 | 82 | 1005.0 |
| 20260505231814 | 17 | 32 | 0.0 | 3.2 | 0.30 | 0.05 | 0.05 | 81 | 1004.8 |
| 20260505231312 | 17 | 219 | 6.4 | 14.5 | 0.30 | 0.05 | 0.05 | 80 | 1005.5 |
| 20260505230810 | 18 | 283 | 14.5 | 19.3 | 0.00 | 0.00 | 0.00 | 69 | 1005.3 |
| 20260505230307 | 18 | 263 | 11.3 | 19.3 | 0.00 | 0.00 | 0.00 | 67 | 1005.4 |
| 20260505225803 | 18 | 290 | 11.3 | 19.3 | 0.00 | 0.00 | 0.00 | 69 | 1005.5 |
| 20260505225301 | 18 | 264 | 16.1 | 27.4 | 0.00 | 0.00 | 0.00 | 69 | 1005.4 |
| 20260505224755 | 18 | 280 | 17.7 | 22.5 | 0.00 | 0.00 | 0.00 | 70 | 1005.7 |
| 20260505224254 | 19 | 271 | 11.3 | 19.3 | 0.00 | 0.00 | 0.00 | 70 | 1005.5 |
| 20260505223751 | 19 | 280 | 20.9 | 22.5 | 0.00 | 0.00 | 0.00 | 66 | 1005.4 |
| 20260505223247 | 20 | 290 | 24.1 | 30.6 | 0.00 | 0.00 | 0.00 | 61 | 1005.3 |
| 20260505222743 | 18 | 263 | 24.1 | 43.5 | 0.00 | 0.00 | 0.00 | 58 | 1005.3 |
| 20260505222240 | 18 | 109 | 1.6 | 8.0 | 0.00 | 0.00 | 0.00 | 57 | 1003.1 |
| 20260505221737 | 18 | 107 | 6.4 | 8.0 | 0.00 | 0.00 | 0.00 | 57 | 1002.8 |
| 20260505221233 | 18 | 111 | 4.8 | 8.0 | 0.00 | 0.00 | 0.00 | 57 | 1003.1 |
| 20260505220730 | 18 | 100 | 8.0 | 8.0 | 0.00 | 0.00 | 0.00 | 57 | 1003.2 |
| 20260505220228 | 19 | 119 | 4.8 | 8.0 | 0.00 | 0.00 | 0.00 | 56 | 1002.8 |
| 20260505215726 | 20 | 115 | 8.0 | 11.3 | 0.00 | 0.00 | 0.00 | 55 | 1003.0 |
| 20260505215223 | 20 | 105 | 6.4 | 8.0 | 0.00 | 0.00 | 0.00 | 55 | 1002.9 |
| 20260505214721 | 19 | 113 | 4.8 | 8.0 | 0.00 | 0.00 | 0.00 | 55 | 1002.9 |
| 20260505214218 | 18 | 116 | 4.8 | 8.0 | 0.00 | 0.00 | 0.00 | 57 | 1002.7 |
| 20260505213715 | 18 | 117 | 8.0 | 8.0 | 0.00 | 0.00 | 0.00 | 57 | 1002.7 |
| 20260505213213 | 20 | 121 | 3.2 | 8.0 | 0.00 | 0.00 | 0.00 | 54 | 1002.6 |
| 20260505212708 | 20 | 116 | 6.4 | 8.0 | 0.00 | 0.00 | 0.00 | 53 | 1002.3 |
| 20260505212206 | 21 | 109 | 4.8 | 8.0 | 0.00 | 0.00 | 0.00 | 52 | 1002.6 |
| 20260505211703 | 21 | 112 | 4.8 | 8.0 | 0.00 | 0.00 | 0.00 | 51 | 1002.4 |
| 20260505211200 | 21 | 110 | 4.8 | 8.0 | 0.00 | 0.00 | 0.00 | 51 | 1002.2 |
| 20260505210656 | 21 | 116 | 4.8 | 8.0 | 0.00 | 0.00 | 0.00 | 52 | 1002.4 |
| 20260505210153 | 21 | 113 | 4.8 | 8.0 | 0.00 | 0.00 | 0.00 | 52 | 1002.3 |
| 20260505205651 | 20 | 102 | 8.0 | 8.0 | 0.00 | 0.00 | 0.00 | 53 | 1002.3 |
| 20260505205149 | 20 | 109 | 4.8 | 4.8 | 0.00 | 0.00 | 0.00 | 53 | 1002.4 |
| 20260505204645 | 20 | 102 | 6.4 | 8.0 | 0.00 | 0.00 | 0.00 | 53 | 1002.3 |
| 20260505204143 | 20 | 122 | 3.2 | 8.0 | 0.00 | 0.00 | 0.00 | 52 | 1002.3 |
| 20260505203640 | 20 | 103 | 4.8 | 8.0 | 0.00 | 0.00 | 0.00 | 52 | 1002.2 |
| 20260505203137 | 21 | 112 | 8.0 | 8.0 | 0.00 | 0.00 | 0.00 | 51 | 1002.3 |
| 20260505202632 | 21 | 130 | 4.8 | 8.0 | 0.00 | 0.00 | 0.00 | 50 | 1002.2 |
| 20260505202128 | 21 | 118 | 4.8 | 8.0 | 0.00 | 0.00 | 0.00 | 51 | 1002.3 |
| 20260505201625 | 20 | 105 | 8.0 | 8.0 | 0.00 | 0.00 | 0.00 | 51 | 1002.4 |
| 20260505201123 | 20 | 138 | 6.4 | 8.0 | 0.00 | 0.00 | 0.00 | 51 | 1002.5 |
| 20260505200621 | 20 | 120 | 4.8 | 4.8 | 0.00 | 0.00 | 0.00 | 51 | 1002.3 |
| 20260505200118 | 21 | 111 | 4.8 | 8.0 | 0.00 | 0.00 | 0.00 | 50 | 1002.4 |